{"data":{"norad_id":56395,"intl_designator":"2023-061X","name":"STARLINK-6273","alt_names":[],"object_type":"PAYLOAD","status":"ACTIVE","operator":null,"country":"US","launch_date":"2023-05-04","launch_site_code":"AFETR","launch_vehicle":null,"mission":null,"orbit_class":"UNKNOWN","rcs_meters":null,"size_class":null,"mass_kg":null,"dimensions":null,"purposes":["comms"],"wikipedia_slug":null,"has_3d_model":false,"image_url":null,"decayed_at":null,"tle_current":{"epoch":"2026-09-20T02:36:08.928288Z","epoch_age_seconds":145904,"freshness":"FRESH","line1":"1 56395U 23061X   26263.10843667 -.00000189  00000+0  26596-5 0  9995","line2":"2 56395  43.0016 169.4749 0000844 241.0436 119.0332 15.27575070187318","mean_motion":15.2757507,"eccentricity":8.44e-5,"inclination_deg":43.0016,"raan_deg":169.4749,"arg_perigee_deg":241.0436,"mean_anomaly_deg":119.0332,"bstar":2.6596e-6,"rev_number":18731,"period_min":94.267052944246,"perigee_km":482.48477292048,"apogee_km":483.64294362535,"semimajor_km":6861.2008582729,"source":"CELESTRAK","updated_at":"2026-09-21T09:00:33.434228Z"}}}